Hourly Weather Oran

Today, 25 September, Friday

Time Temperature Precipitation Wind Pressure Humidity
00:00 +28°C° 0 mm 3 mps 753 mmHg 35%
01:00 +28°C° 0 mm 3 mps 752 mmHg 35%
02:00 +28°C° 0 mm 4 mps 752 mmHg 35%
03:00 +28°C° 0 mm 4 mps 751 mmHg 35%
04:00 +28°C° 0 mm 4 mps 751 mmHg 35%
05:00 +28°C° 0 mm 5 mps 752 mmHg 35%
06:00 +28°C° 0 mm 5 mps 752 mmHg 36%
07:00 +29°C° 0 mm 6 mps 752 mmHg 35%
08:00 +31°C° 0 mm 8 mps 752 mmHg 34%
09:00 +33°C° 0 mm 9 mps 753 mmHg 33%
10:00 +33°C° 0 mm 9 mps 753 mmHg 32%
11:00 +34°C° 0 mm 10 mps 753 mmHg 32%
12:00 +34°C° 0 mm 10 mps 753 mmHg 31%
13:00 +34°C° 0 mm 9 mps 753 mmHg 33%
14:00 +33°C° 0 mm 8 mps 753 mmHg 36%
15:00 +32°C° 0 mm 7 mps 752 mmHg 38%
16:00 +30°C° 0 mm 6 mps 752 mmHg 44%
17:00 +28°C° 0 mm 4 mps 752 mmHg 49%
18:00 +27°C° 0 mm 3 mps 752 mmHg 55%
19:00 +26°C° 0 mm 3 mps 753 mmHg 54%
20:00 +26°C° 0 mm 2 mps 753 mmHg 53%
21:00 +25°C° 0 mm 2 mps 754 mmHg 52%
22:00 +25°C° 0 mm 2 mps 754 mmHg 54%
23:00 +24°C° 0 mm 2 mps 754 mmHg 55%

Tomorrow, 26 September, Saturday

Time Temperature Precipitation Wind Pressure Humidity
00:00 +24°C° 0 mm 1 mps 754 mmHg 56%
01:00 +23°C° 0 mm 1 mps 753 mmHg 59%
02:00 +23°C° 0 mm 2 mps 753 mmHg 62%
03:00 +21°C° 0 mm 2 mps 753 mmHg 64%
04:00 +21°C° 0 mm 3 mps 753 mmHg 68%
05:00 +21°C° 0 mm 3 mps 753 mmHg 72%
06:00 +20°C° 0 mm 3 mps 753 mmHg 76%
07:00 +22°C° 0 mm 4 mps 753 mmHg 70%
08:00 +23°C° 0 mm 4 mps 753 mmHg 64%
09:00 +25°C° 0 mm 5 mps 754 mmHg 57%
10:00 +26°C° 0 mm 5 mps 753 mmHg 53%
11:00 +26°C° 0 mm 5 mps 753 mmHg 50%
12:00 +27°C° 0 mm 5 mps 753 mmHg 46%
13:00 +27°C° 0 mm 5 mps 752 mmHg 45%
14:00 +27°C° 0 mm 6 mps 752 mmHg 43%
15:00 +27°C° 0 mm 6 mps 752 mmHg 42%
16:00 +26°C° 0 mm 5 mps 752 mmHg 44%
17:00 +25°C° 0 mm 3 mps 752 mmHg 46%
18:00 +24°C° 0 mm 2 mps 751 mmHg 48%
19:00 +23°C° 0 mm 1 mps 752 mmHg 49%
20:00 +23°C° 0 mm 1 mps 752 mmHg 50%
21:00 +20°C° 0 mm 0 mps 752 mmHg 52%
22:00 +22°C° 0 mm 1 mps 751 mmHg 52%
23:00 +21°C° 0 mm 2 mps 751 mmHg 52%

Day after tomorrow, 27 September, Sunday

Time Temperature Precipitation Wind Pressure Humidity
00:00 +21°C° 0 mm 3 mps 751 mmHg 53%
01:00 +21°C° 0 mm 3 mps 750 mmHg 56%
02:00 +20°C° 0 mm 3 mps 750 mmHg 59%
03:00 +20°C° 0 mm 3 mps 749 mmHg 62%
04:00 +20°C° 0 mm 4 mps 749 mmHg 64%
05:00 +19°C° 0 mm 4 mps 749 mmHg 65%
06:00 +19°C° 0 mm 4 mps 749 mmHg 67%
07:00 +21°C° 0 mm 4 mps 750 mmHg 61%
08:00 +22°C° 0 mm 5 mps 750 mmHg 54%
09:00 +25°C° 0 mm 5 mps 750 mmHg 48%
10:00 +26°C° 0 mm 5 mps 750 mmHg 44%
11:00 +27°C° 0 mm 5 mps 750 mmHg 39%
12:00 +28°C° 0 mm 5 mps 750 mmHg 35%
13:00 +27°C° 0 mm 5 mps 750 mmHg 36%
14:00 +27°C° 0 mm 4 mps 749 mmHg 36%
15:00 +27°C° 0 mm 4 mps 749 mmHg 37%
16:00 +26°C° 0 mm 3 mps 749 mmHg 40%
17:00 +25°C° 0 mm 2 mps 749 mmHg 43%
18:00 +25°C° 0 mm 2 mps 749 mmHg 46%
19:00 +24°C° 0 mm 2 mps 750 mmHg 47%
20:00 +24°C° 0 mm 2 mps 750 mmHg 49%
21:00 +23°C° 0 mm 2 mps 750 mmHg 51%
22:00 +23°C° 0 mm 2 mps 750 mmHg 51%
23:00 +21°C° 0 mm 2 mps 750 mmHg 51%

28 September, Monday

Time Temperature Precipitation Wind Pressure Humidity
00:00 +21°C° 0 mm 2 mps 750 mmHg 51%
01:00 +21°C° 0 mm 1 mps 750 mmHg 55%
02:00 +21°C° 0 mm 1 mps 750 mmHg 59%
03:00 +20°C° 0 mm 1 mps 750 mmHg 62%
04:00 +20°C° 0 mm 1 mps 750 mmHg 62%
05:00 +18°C° 0 mm 0 mps 750 mmHg 62%
06:00 +17°C° 0 mm 0 mps 751 mmHg 62%
07:00 +22°C° 0 mm 1 mps 751 mmHg 54%
08:00 +24°C° 0 mm 1 mps 751 mmHg 45%
09:00 +26°C° 0 mm 2 mps 752 mmHg 37%
10:00 +28°C° 0 mm 2 mps 752 mmHg 33%
11:00 +29°C° 0 mm 3 mps 752 mmHg 29%
12:00 +32°C° 0 mm 4 mps 752 mmHg 25%
13:00 +32°C° 0 mm 5 mps 751 mmHg 25%
14:00 +32°C° 0 mm 6 mps 751 mmHg 26%
15:00 +32°C° 0 mm 7 mps 751 mmHg 26%
16:00 +30°C° 0 mm 7 mps 750 mmHg 33%
17:00 +28°C° 0 mm 7 mps 750 mmHg 39%
18:00 +26°C° 0 mm 7 mps 750 mmHg 46%
19:00 +26°C° 0 mm 6 mps 751 mmHg 47%
20:00 +24°C° 0 mm 6 mps 751 mmHg 48%
21:00 +24°C° 0 mm 6 mps 752 mmHg 50%
22:00 +24°C° 0 mm 6 mps 752 mmHg 49%
23:00 +23°C° 0 mm 5 mps 752 mmHg 48%

29 September, Tuesday

Time Temperature Precipitation Wind Pressure Humidity
00:00 +23°C° 0 mm 5 mps 751 mmHg 48%
01:00 +23°C° 0 mm 5 mps 751 mmHg 47%
02:00 +23°C° 0 mm 5 mps 751 mmHg 47%
03:00 +22°C° 0 mm 5 mps 750 mmHg 47%
04:00 +22°C° 0 mm 5 mps 751 mmHg 48%
05:00 +22°C° 0 mm 5 mps 751 mmHg 49%
06:00 +22°C° 0 mm 5 mps 751 mmHg 49%
07:00 +25°C° 0 mm 4 mps 751 mmHg 44%
08:00 +27°C° 0 mm 4 mps 751 mmHg 38%
09:00 +28°C° 0 mm 4 mps 751 mmHg 32%
10:00 +30°C° 0 mm 4 mps 751 mmHg 31%
11:00 +32°C° 0 mm 4 mps 751 mmHg 30%
12:00 +33°C° 0 mm 5 mps 751 mmHg 29%
13:00 +33°C° 0 mm 5 mps 751 mmHg 33%
14:00 +33°C° 0 mm 5 mps 750 mmHg 36%
15:00 +32°C° 0 mm 6 mps 750 mmHg 39%
16:00 +30°C° 0 mm 6 mps 750 mmHg 47%
17:00 +28°C° 0 mm 5 mps 750 mmHg 55%
18:00 +27°C° 0 mm 5 mps 750 mmHg 63%
19:00 +26°C° 0 mm 4 mps 751 mmHg 66%
20:00 +25°C° 0 mm 4 mps 751 mmHg 70%
21:00 +25°C° 0 mm 3 mps 751 mmHg 73%
22:00 +24°C° 0 mm 3 mps 751 mmHg 75%
23:00 +24°C° 0 mm 3 mps 751 mmHg 78%

30 September, Wednesday

Time Temperature Precipitation Wind Pressure Humidity
00:00 +24°C° 0 mm 3 mps 751 mmHg 80%
01:00 +23°C° 0 mm 2 mps 751 mmHg 83%
02:00 +23°C° 0 mm 2 mps 750 mmHg 85%
03:00 +23°C° 0 mm 2 mps 750 mmHg 88%
04:00 +23°C° 0 mm 2 mps 750 mmHg 89%
05:00 +21°C° 0 mm 2 mps 750 mmHg 90%
06:00 +22°C° 0 mm 1 mps 750 mmHg 91%
07:00 +23°C° 0 mm 1 mps 751 mmHg 85%
08:00 +24°C° 0 mm 1 mps 751 mmHg 78%
09:00 +25°C° 0 mm 1 mps 751 mmHg 72%
10:00 +27°C° 0 mm 2 mps 751 mmHg 65%
11:00 +28°C° 0 mm 2 mps 751 mmHg 59%
12:00 +30°C° 0 mm 3 mps 751 mmHg 53%
13:00 +29°C° 0 mm 3 mps 750 mmHg 55%
14:00 +29°C° 0 mm 3 mps 750 mmHg 57%
15:00 +28°C° 0 mm 3 mps 750 mmHg 59%
16:00 +28°C° 0 mm 3 mps 750 mmHg 63%
17:00 +27°C° 0 mm 2 mps 750 mmHg 67%
18:00 +26°C° 0 mm 2 mps 750 mmHg 71%
19:00 +25°C° 0 mm 1 mps 750 mmHg 73%
20:00 +25°C° 0 mm 1 mps 750 mmHg 76%
21:00 +22°C° 0 mm 0 mps 751 mmHg 79%
22:00 +24°C° 0 mm 1 mps 751 mmHg 81%
23:00 +24°C° 0 mm 1 mps 750 mmHg 83%
Show more